sat.trackr.live / text

‹ back to catalog

SKYKRAFT-4E

NORAD 65227 · 2025-154L

PAYLOAD ACTIVE UNKNOWN

§ Identity

Operator
Country
AUS
Launch date
2025-07-23
Launch site
AFWTR
Launch vehicle
Mass (kg)
RCS (m²)

External: N2YO · Heavens-Above · Gunter

§ Orbital elements

Epoch: 2026-09-20T21:06:28.784448Z

Period
96.07 min
Inclination
97.6618°
Eccentricity
0.0003739
Mean motion
14.98930293 rev/d
Perigee alt
567.6 km
Apogee alt
572.8 km
Semi-major
6,948.3 km
B*
2.5391e-4
RAAN
327.0113°
Arg perigee
320.1019°
Mean anomaly
39.9929°
Rev number
6,166

§ Raw data

SKYKRAFT-4E1 65227U 25154L   26263.87949982  .00003013  00000+0  25391-3 0  99932 65227  97.6618 327.0113 0003739 320.1019  39.9929 14.98930293 61664

JSON: /api/v1/satellites/65227 · /tle

For live sub-satellite position, see the globe view (requires WebGL).

§ Visibility from observer

Set your observer location to see the next 7 days of passes ≥ 10°. The values pass through the URL so the page stays shareable.

No JS? Fill the form by hand. The geolocation button needs JavaScript.